Weather History for Mobridge, SD

Change the Weather History Date:

Sunday, November 3, 2013

  Actual Average Record
Temperature  
Mean Temperature 42 °F 39 °F  
Max Temperature 53 °F 50 °F 73 °F (1916)
Min Temperature 31 °F 28 °F -1 °F (1991)
Degree Days  
Heating Degree Days 23 26  
Month to date heating degree days 77 76  
Since 1 July heating degree days 839 850  
Cooling Degree Days 0 0  
Month to date cooling degree days 0 0  
Year to date cooling degree days 700 644  
Moisture  
Dew Point 32 °F    
Average Humidity 69    
Maximum Humidity 89    
Minimum Humidity 49    
Precipitation  
Precipitation 0.00 in 0.03 in 0.15 in (2003)
Month to date precipitation T 0.10  
Year to date precipitation 22.88 17.05  
Snow  
Snow 0.00 in - - ()
Month to date snowfall 0.0  
Since 1 July snowfall 1.0  
Snow Depth 0.00 in    
Sea Level Pressure  
Sea Level Pressure 29.58 in    
Wind  
Wind Speed 11 mph (SSW)    
Max Wind Speed 29 mph    
Max Gust Speed 36 mph    
Visibility 10 miles    
Events      
T = Trace of Precipitation, MM = Missing Value Source: NWS Daily Summary

Daily Weather History Graph

Daily Weather History Graph

Search for Another Location

Airport:

Trip Planner

Search our weather history database for the weather conditions in past years. The results will help you decide how hot, cold, wet, or windy it might be!

Date:

Astronomy

Nov. 03, 2013 Rise Set
Actual Time 7:24 AM CST 5:25 PM CST
Civil Twilight 6:53 AM CST 5:56 PM CST
Nautical Twilight 6:18 AM CST 6:31 PM CST
Astronomical Twilight 5:43 AM CST 7:06 PM CST
Moon 7:31 AM CST (11/3) 5:39 PM CST (11/3)
Length of Visible Light 11h 03m
Length of Day
10h 00m
New Moon, 0% of the Moon is Illuminated
Nov 3
New Moon
Nov 9
First Quarter
Nov 17
Full
Nov 25
Last Quarter
Dec 2
New

Hourly Weather History & Observations

Time (CST) Temp. Windchill Dew Point Humidity Pressure Visibility Wind Dir Wind Speed Gust Speed Precip Events Conditions
12:52 AM 45.0 °F 36.2 °F 28.9 °F 53% 29.68 in 10.0 mi SE 24.2 mph 31.1 mph N/A   Clear
1:52 AM 46.0 °F 37.0 °F 28.0 °F 50% 29.65 in 10.0 mi SE 27.6 mph - N/A   Clear
1:52 AM 46.0 °F 37.8 °F 30.0 °F 54% 29.62 in 10.0 mi SSE 23.0 mph 32.2 mph N/A   Clear
2:52 AM 44.1 °F 35.4 °F 28.9 °F 55% 29.59 in 10.0 mi SSE 21.9 mph - N/A   Clear
3:52 AM 44.1 °F 35.9 °F 30.9 °F 60% 29.56 in 10.0 mi SSE 19.6 mph 27.6 mph N/A   Clear
4:52 AM 43.0 °F 34.5 °F 30.9 °F 62% 29.55 in 10.0 mi SSE 19.6 mph - N/A   Clear
5:52 AM 42.1 °F 33.9 °F 30.9 °F 65% 29.53 in 10.0 mi SSE 17.3 mph - N/A   Clear
6:52 AM 41.0 °F 33.9 °F 30.9 °F 67% 29.53 in 10.0 mi SSE 12.7 mph - N/A   Clear
7:52 AM 39.9 °F 33.9 °F 32.0 °F 73% 29.52 in 10.0 mi SSE 9.2 mph - N/A   Clear
8:52 AM 43.0 °F 36.8 °F 33.1 °F 68% 29.54 in 10.0 mi South 11.5 mph - N/A   Clear
9:52 AM 45.0 °F 40.1 °F 33.1 °F 63% 29.52 in 10.0 mi SSE 9.2 mph - N/A   Clear
10:52 AM 46.0 °F 41.9 °F 34.0 °F 63% 29.53 in 10.0 mi South 8.1 mph - N/A   Clear
11:52 AM 50.0 °F - 35.1 °F 57% 29.52 in 10.0 mi WSW 4.6 mph - N/A   Clear
12:52 PM 52.0 °F - 34.0 °F 50% 29.51 in 10.0 mi Calm Calm - N/A   Clear
1:52 PM 51.1 °F - 34.0 °F 52% 29.52 in 10.0 mi NW 9.2 mph - N/A   Clear
2:52 PM 52.0 °F - 34.0 °F 50% 29.53 in 10.0 mi West 3.5 mph - N/A   Clear
3:52 PM 48.9 °F - 34.0 °F 56% 29.56 in 10.0 mi NW 8.1 mph - N/A   Clear
4:52 PM 46.9 °F - 35.1 °F 63% 29.57 in 10.0 mi NW 8.1 mph - N/A   Clear
5:52 PM 45.0 °F 39.7 °F 34.0 °F 65% 29.60 in 10.0 mi NW 10.4 mph - N/A   Clear
6:52 PM 44.1 °F 38.6 °F 34.0 °F 68% 29.62 in 10.0 mi NNW 10.4 mph - N/A   Clear
7:52 PM 39.0 °F 34.0 °F 33.1 °F 79% 29.65 in 10.0 mi NNW 6.9 mph - N/A   Clear
8:52 PM 34.0 °F 27.2 °F 30.0 °F 85% 29.65 in 10.0 mi NNW 8.1 mph - N/A   Clear
9:52 PM 35.1 °F - 30.0 °F 82% 29.68 in 10.0 mi Calm Calm - N/A   Clear
10:52 PM 35.1 °F 32.2 °F 32.0 °F 89% 29.70 in 10.0 mi NW 3.5 mph - N/A   Overcast